Time,TemperatureF,DewpointF,PressureIn,WindDirection,WindDirectionDegrees,WindSpeedMPH,WindSpeedGustMPH,Humidity,HourlyPrecipIn,Conditions,Clouds,dailyrainin,SoftwareType,DateUTC
2013-03-14 00:00:00,28.8,-4.3,30.09,NNE,22,8.7,10.1,23,0.00,,---,0.00,VWS V14.01,2013-03-14 04:00:00,
2013-03-14 00:05:00,28.8,-4.3,30.09,SW,225,7.6,10.1,23,0.00,,---,0.00,VWS V14.01,2013-03-14 04:05:00,
2013-03-14 00:10:00,28.8,-4.3,30.09,NNE,22,4.0,4.0,23,0.00,,---,0.00,VWS V14.01,2013-03-14 04:10:00,
2013-03-14 00:15:00,28.9,-4.2,30.09,North,0,11.0,11.0,23,0.00,,---,0.00,VWS V14.01,2013-03-14 04:15:00,
2013-03-14 00:20:00,28.8,-4.3,30.09,North,0,5.8,10.1,23,0.00,,---,0.00,VWS V14.01,2013-03-14 04:20:00,
2013-03-14 00:25:00,28.6,-4.5,30.09,NW,315,2.7,4.0,23,0.00,,---,0.00,VWS V14.01,2013-03-14 04:25:00,
2013-03-14 00:30:00,28.8,-4.3,30.09,West,270,3.6,10.5,23,0.00,,---,0.00,VWS V14.01,2013-03-14 04:30:00,
2013-03-14 00:35:00,28.8,-4.3,30.09,West,270,5.4,8.1,23,0.00,,---,0.00,VWS V14.01,2013-03-14 04:35:00,
2013-03-14 00:40:00,28.8,-4.3,30.09,WNW,292,4.5,4.5,23,0.00,,---,0.00,VWS V14.01,2013-03-14 04:40:00,
2013-03-14 00:45:00,28.9,-4.2,30.09,NNE,22,7.2,7.2,23,0.00,,---,0.00,VWS V14.01,2013-03-14 04:45:00,
2013-03-14 00:50:00,28.8,-4.3,30.09,NNW,338,3.6,8.3,23,0.00,,---,0.00,VWS V14.01,2013-03-14 04:50:00,
2013-03-14 00:55:00,28.8,-2.6,30.06,NNE,22,5.4,5.4,25,0.00,,---,0.00,VWS V14.01,2013-03-14 04:55:00,
2013-03-14 01:00:00,28.8,-2.6,30.06,North,0,13.2,13.2,25,0.00,,---,0.00,VWS V14.01,2013-03-14 05:00:00,
2013-03-14 01:05:00,28.8,-2.6,30.06,NNE,22,10.1,10.1,25,0.00,,---,0.00,VWS V14.01,2013-03-14 05:05:00,
2013-03-14 01:10:00,28.8,-2.6,30.09,NNW,338,4.9,10.5,25,0.00,,---,0.00,VWS V14.01,2013-03-14 05:10:00,
2013-03-14 01:15:00,28.8,-2.6,30.09,North,0,3.1,4.0,25,0.00,,---,0.00,VWS V14.01,2013-03-14 05:15:00,
2013-03-14 01:20:00,28.8,-0.2,30.09,NE,45,5.8,5.8,28,0.00,,---,0.00,VWS V14.01,2013-03-14 05:20:00,
2013-03-14 01:25:00,28.6,1.1,30.09,NNE,22,2.2,2.2,30,0.00,,---,0.00,VWS V14.01,2013-03-14 05:25:00,
2013-03-14 01:30:00,28.4,2.3,30.09,NNW,338,6.3,8.3,32,0.00,,---,0.00,VWS V14.01,2013-03-14 05:30:00,
2013-03-14 01:35:00,28.2,2.8,30.09,NW,315,7.2,7.6,33,0.00,,---,0.00,VWS V14.01,2013-03-14 05:35:00,
2013-03-14 01:40:00,28.2,2.8,30.09,NW,315,2.7,6.3,33,0.00,,---,0.00,VWS V14.01,2013-03-14 05:40:00,
2013-03-14 01:45:00,28.0,2.7,30.09,NW,315,4.9,4.9,33,0.00,,---,0.00,VWS V14.01,2013-03-14 05:45:00,
2013-03-14 01:50:00,28.0,2.7,30.09,NW,315,8.1,8.1,33,0.00,,---,0.00,VWS V14.01,2013-03-14 05:50:00,
2013-03-14 01:55:00,28.2,1.5,30.09,NNW,338,4.0,4.0,31,0.00,,---,0.00,VWS V14.01,2013-03-14 05:55:00,
2013-03-14 02:00:00,28.0,2.0,30.09,SSE,158,3.1,3.6,32,0.00,,---,0.00,VWS V14.01,2013-03-14 06:00:00,
2013-03-14 02:05:00,27.9,2.5,30.09,NW,315,4.0,4.0,33,0.00,,---,0.00,VWS V14.01,2013-03-14 06:05:00,
2013-03-14 02:10:00,27.9,1.8,30.09,NE,45,5.8,7.6,32,0.00,,---,0.00,VWS V14.01,2013-03-14 06:10:00,
2013-03-14 02:15:00,27.9,2.5,30.09,WNW,292,3.6,3.6,33,0.00,,---,0.00,VWS V14.01,2013-03-14 06:15:00,
2013-03-14 02:20:00,27.9,2.5,30.09,NE,45,0.0,4.0,33,0.00,,---,0.00,VWS V14.01,2013-03-14 06:20:00,
2013-03-14 02:25:00,27.7,3.6,30.09,North,0,3.6,4.0,35,0.00,,---,0.00,VWS V14.01,2013-03-14 06:25:00,
2013-03-14 02:30:00,27.5,5.8,30.09,North,0,2.7,2.7,39,0.00,,---,0.00,VWS V14.01,2013-03-14 06:30:00,
2013-03-14 02:35:00,27.1,7.1,30.09,NW,315,2.2,5.8,42,0.00,,---,0.00,VWS V14.01,2013-03-14 06:35:00,
2013-03-14 02:40:00,27.0,6.9,30.09,North,0,3.6,3.6,42,0.00,,---,0.00,VWS V14.01,2013-03-14 06:40:00,
2013-03-14 02:45:00,27.0,6.9,30.09,NW,315,4.0,4.0,42,0.00,,---,0.00,VWS V14.01,2013-03-14 06:45:00,
2013-03-14 02:50:00,26.8,7.3,30.09,WSW,248,0.0,0.0,43,0.00,,---,0.00,VWS V14.01,2013-03-14 06:50:00,
2013-03-14 02:55:00,26.8,7.3,30.09,WNW,292,3.6,3.6,43,0.00,,---,0.00,VWS V14.01,2013-03-14 06:55:00,
2013-03-14 03:00:00,26.8,7.3,30.09,NW,315,2.7,7.2,43,0.00,,---,0.00,VWS V14.01,2013-03-14 07:00:00,
2013-03-14 03:05:00,26.8,7.3,30.09,NW,315,4.0,4.0,43,0.00,,---,0.00,VWS V14.01,2013-03-14 07:05:00,
2013-03-14 03:10:00,26.8,7.3,30.09,NNW,338,0.0,0.0,43,0.00,,---,0.00,VWS V14.01,2013-03-14 07:10:00,
2013-03-14 03:15:00,27.0,6.9,30.09,NE,45,2.7,5.4,42,0.00,,---,0.00,VWS V14.01,2013-03-14 07:15:00,
2013-03-14 03:20:00,27.0,6.4,30.09,SE,135,2.7,8.3,41,0.00,,---,0.00,VWS V14.01,2013-03-14 07:20:00,
2013-03-14 03:25:00,27.0,4.8,30.09,NNE,22,4.5,4.5,38,0.00,,---,0.00,VWS V14.01,2013-03-14 07:25:00,
2013-03-14 03:30:00,27.0,4.2,30.09,NNE,22,8.3,8.3,37,0.00,,---,0.00,VWS V14.01,2013-03-14 07:30:00,
2013-03-14 03:35:00,27.0,4.8,30.09,NW,315,3.1,10.5,38,0.00,,---,0.00,VWS V14.01,2013-03-14 07:35:00,
2013-03-14 03:40:00,27.0,3.0,30.09,NW,315,5.4,5.4,35,0.00,,---,0.00,VWS V14.01,2013-03-14 07:40:00,
2013-03-14 03:45:00,27.0,2.3,30.09,North,0,3.1,5.8,34,0.00,,---,0.00,VWS V14.01,2013-03-14 07:45:00,
2013-03-14 03:50:00,26.8,0.9,30.09,NW,315,3.1,5.8,32,0.00,,---,0.00,VWS V14.01,2013-03-14 07:50:00,
2013-03-14 03:55:00,27.0,-1.8,30.12,NNE,22,0.0,8.7,28,0.00,,---,0.00,VWS V14.01,2013-03-14 07:55:00,
2013-03-14 04:00:00,26.8,-1.9,30.12,NW,315,7.2,7.2,28,0.00,,---,0.00,VWS V14.01,2013-03-14 08:00:00,
2013-03-14 04:05:00,26.6,-3.7,30.12,North,0,3.6,3.6,26,0.00,,---,0.00,VWS V14.01,2013-03-14 08:05:00,
2013-03-14 04:10:00,26.4,-3.8,30.09,NE,45,2.2,3.6,26,0.00,,---,0.00,VWS V14.01,2013-03-14 08:10:00,
2013-03-14 04:15:00,26.4,-3.8,30.09,NW,315,2.7,3.1,26,0.00,,---,0.00,VWS V14.01,2013-03-14 08:15:00,
2013-03-14 04:20:00,26.4,-3.8,30.09,NW,315,5.8,5.8,26,0.00,,---,0.00,VWS V14.01,2013-03-14 08:20:00,
2013-03-14 04:25:00,26.4,-1.5,30.09,NNE,22,5.8,5.8,29,0.00,,---,0.00,VWS V14.01,2013-03-14 08:25:00,
2013-03-14 04:30:00,26.4,-1.5,30.09,NNE,22,4.0,4.0,29,0.00,,---,0.00,VWS V14.01,2013-03-14 08:30:00,
2013-03-14 04:35:00,26.4,-3.8,30.09,North,0,3.1,8.1,26,0.00,,---,0.00,VWS V14.01,2013-03-14 08:35:00,
2013-03-14 04:40:00,26.4,-3.8,30.09,SE,135,2.7,5.4,26,0.00,,---,0.00,VWS V14.01,2013-03-14 08:40:00,
2013-03-14 04:45:00,26.4,-3.8,30.09,NNE,22,3.6,5.8,26,0.00,,---,0.00,VWS V14.01,2013-03-14 08:45:00,
2013-03-14 04:50:00,26.6,-3.7,30.09,WNW,292,7.2,8.1,26,0.00,,---,0.00,VWS V14.01,2013-03-14 08:50:00,
2013-03-14 04:55:00,26.6,-3.7,30.12,SW,225,7.2,8.3,26,0.00,,---,0.00,VWS V14.01,2013-03-14 08:55:00,
2013-03-14 05:00:00,26.4,-1.5,30.12,NW,315,4.9,6.3,29,0.00,,---,0.00,VWS V14.01,2013-03-14 09:00:00,
2013-03-14 05:05:00,26.2,-1.7,30.12,NNW,338,3.1,6.3,29,0.00,,---,0.00,VWS V14.01,2013-03-14 09:05:00,
2013-03-14 05:10:00,26.4,-3.8,30.12,NNW,338,8.7,8.7,26,0.00,,---,0.00,VWS V14.01,2013-03-14 09:10:00,
2013-03-14 05:15:00,26.2,-4.0,30.12,WSW,248,9.2,11.0,26,0.00,,---,0.00,VWS V14.01,2013-03-14 09:15:00,
2013-03-14 05:20:00,26.2,-4.0,30.12,SSE,158,4.9,8.7,26,0.00,,---,0.00,VWS V14.01,2013-03-14 09:20:00,
2013-03-14 05:25:00,26.2,-1.7,30.09,NW,315,4.9,13.2,29,0.00,,---,0.00,VWS V14.01,2013-03-14 09:25:00,
2013-03-14 05:30:00,26.2,-1.7,30.09,NW,315,4.9,4.9,29,0.00,,---,0.00,VWS V14.01,2013-03-14 09:30:00,
2013-03-14 05:35:00,26.2,-4.0,30.09,WNW,292,2.2,2.2,26,0.00,,---,0.00,VWS V14.01,2013-03-14 09:35:00,
2013-03-14 05:40:00,26.2,-4.0,30.12,East,90,7.2,7.2,26,0.00,,---,0.00,VWS V14.01,2013-03-14 09:40:00,
2013-03-14 05:45:00,26.2,-4.0,30.12,NNE,22,2.7,3.1,26,0.00,,---,0.00,VWS V14.01,2013-03-14 09:45:00,
2013-03-14 05:50:00,26.1,-4.1,30.12,NW,315,3.6,3.6,26,0.00,,---,0.00,VWS V14.01,2013-03-14 09:50:00,
2013-03-14 05:55:00,26.1,-4.1,30.12,South,180,2.7,2.7,26,0.00,,---,0.00,VWS V14.01,2013-03-14 09:55:00,
2013-03-14 06:00:00,26.1,-4.1,30.12,ESE,112,2.2,3.1,26,0.00,,---,0.00,VWS V14.01,2013-03-14 10:00:00,
2013-03-14 06:05:00,26.1,-1.8,30.12,North,0,5.8,5.8,29,0.00,,---,0.00,VWS V14.01,2013-03-14 10:05:00,
2013-03-14 06:10:00,26.1,-4.1,30.12,West,270,7.2,7.2,26,0.00,,---,0.00,VWS V14.01,2013-03-14 10:10:00,
2013-03-14 06:15:00,26.1,-1.8,30.12,West,270,3.1,4.0,29,0.00,,---,0.00,VWS V14.01,2013-03-14 10:15:00,
2013-03-14 06:20:00,26.1,-4.1,30.12,WNW,292,5.4,5.4,26,0.00,,---,0.00,VWS V14.01,2013-03-14 10:20:00,
2013-03-14 06:25:00,26.1,-4.1,30.12,East,90,3.6,4.9,26,0.00,,---,0.00,VWS V14.01,2013-03-14 10:25:00,
2013-03-14 06:30:00,25.9,-4.3,30.12,WSW,248,3.1,3.6,26,0.00,,---,0.00,VWS V14.01,2013-03-14 10:30:00,
2013-03-14 06:35:00,25.9,-4.3,30.12,North,0,4.0,5.4,26,0.00,,---,0.00,VWS V14.01,2013-03-14 10:35:00,
2013-03-14 06:40:00,25.9,-4.3,30.15,NE,45,3.6,8.7,26,0.00,,---,0.00,VWS V14.01,2013-03-14 10:40:00,
2013-03-14 06:45:00,25.7,-4.4,30.15,NNW,338,2.2,2.7,26,0.00,,---,0.00,VWS V14.01,2013-03-14 10:45:00,
2013-03-14 06:50:00,25.5,-4.6,30.15,SW,225,8.1,8.1,26,0.00,,---,0.00,VWS V14.01,2013-03-14 10:50:00,
2013-03-14 06:55:00,25.3,-4.7,30.15,NNW,338,3.6,3.6,26,0.00,,---,0.00,VWS V14.01,2013-03-14 10:55:00,
2013-03-14 07:00:00,25.2,-2.6,30.15,SW,225,4.9,8.7,29,0.00,,---,0.00,VWS V14.01,2013-03-14 11:00:00,
2013-03-14 07:05:00,25.2,-2.6,30.15,NE,45,4.9,4.9,29,0.00,,---,0.00,VWS V14.01,2013-03-14 11:05:00,
2013-03-14 07:10:00,25.3,-1.1,30.18,NW,315,4.0,5.4,31,0.00,,---,0.00,VWS V14.01,2013-03-14 11:10:00,
2013-03-14 07:15:00,25.3,-0.4,30.18,West,270,3.6,5.8,32,0.00,,---,0.00,VWS V14.01,2013-03-14 11:15:00,
2013-03-14 07:20:00,25.3,-0.4,30.18,North,0,3.1,3.1,32,0.00,,---,0.00,VWS V14.01,2013-03-14 11:20:00,
2013-03-14 07:25:00,25.3,-0.4,30.15,NW,315,6.3,6.3,32,0.00,,---,0.00,VWS V14.01,2013-03-14 11:25:00,
2013-03-14 07:30:00,25.3,-0.4,30.15,NNE,22,4.9,4.9,32,0.00,,---,0.00,VWS V14.01,2013-03-14 11:30:00,
2013-03-14 07:35:00,25.2,-1.2,30.15,WNW,292,5.8,5.8,31,0.00,,---,0.00,VWS V14.01,2013-03-14 11:35:00,
2013-03-14 07:40:00,25.3,-1.1,30.18,North,0,4.0,4.0,31,0.00,,---,0.00,VWS V14.01,2013-03-14 11:40:00,
2013-03-14 07:45:00,25.2,-1.2,30.18,NNW,338,0.0,2.7,31,0.00,,---,0.00,VWS V14.01,2013-03-14 11:45:00,
2013-03-14 07:50:00,25.3,-0.4,30.18,North,0,2.7,8.7,32,0.00,,---,0.00,VWS V14.01,2013-03-14 11:50:00,
2013-03-14 07:55:00,25.3,-2.5,30.15,NNW,338,2.7,3.6,29,0.00,,---,0.00,VWS V14.01,2013-03-14 11:55:00,
2013-03-14 08:00:00,25.3,-4.7,30.15,NNW,338,4.0,4.0,26,0.00,,---,0.00,VWS V14.01,2013-03-14 12:00:00,
2013-03-14 08:05:00,25.3,-2.5,30.15,ENE,68,0.0,0.0,29,0.00,,---,0.00,VWS V14.01,2013-03-14 12:05:00,
2013-03-14 08:10:00,25.2,-2.6,30.18,NW,315,11.0,11.0,29,0.00,,---,0.00,VWS V14.01,2013-03-14 12:10:00,
2013-03-14 08:15:00,25.0,-2.8,30.18,SW,225,3.1,3.6,29,0.00,,---,0.00,VWS V14.01,2013-03-14 12:15:00,
2013-03-14 08:20:00,25.0,-2.8,30.18,SE,135,3.1,3.1,29,0.00,,---,0.00,VWS V14.01,2013-03-14 12:20:00,
2013-03-14 08:25:00,25.2,-4.9,30.18,NNW,338,5.8,5.8,26,0.00,,---,0.00,VWS V14.01,2013-03-14 12:25:00,
2013-03-14 08:30:00,25.5,-2.3,30.18,SW,225,0.0,3.1,29,0.00,,---,0.00,VWS V14.01,2013-03-14 12:30:00,
2013-03-14 08:35:00,25.7,-2.2,30.18,NNW,338,2.7,2.7,29,0.00,,---,0.00,VWS V14.01,2013-03-14 12:35:00,
2013-03-14 08:40:00,26.1,-1.8,30.21,SW,225,3.1,6.3,29,0.00,,---,0.00,VWS V14.01,2013-03-14 12:40:00,
2013-03-14 08:45:00,26.4,-3.8,30.21,South,180,3.1,5.4,26,0.00,,---,0.00,VWS V14.01,2013-03-14 12:45:00,
2013-03-14 08:50:00,26.8,-3.5,30.21,SE,135,3.1,4.9,26,0.00,,---,0.00,VWS V14.01,2013-03-14 12:50:00,
2013-03-14 08:55:00,27.5,-2.9,30.21,NW,315,7.2,7.2,26,0.00,,---,0.00,VWS V14.01,2013-03-14 12:55:00,
2013-03-14 09:00:00,27.3,-3.0,30.21,North,0,4.0,5.8,26,0.00,,---,0.00,VWS V14.01,2013-03-14 13:00:00,
2013-03-14 09:05:00,27.5,-5.4,30.21,West,270,2.7,6.3,23,0.00,,---,0.00,VWS V14.01,2013-03-14 13:05:00,
2013-03-14 09:10:00,28.0,-2.4,30.21,NE,45,4.9,4.9,26,0.00,,---,0.00,VWS V14.01,2013-03-14 13:10:00,
2013-03-14 09:15:00,28.0,-2.4,30.21,NW,315,8.7,8.7,26,0.00,,---,0.00,VWS V14.01,2013-03-14 13:15:00,
2013-03-14 09:20:00,28.0,-2.4,30.21,SW,225,2.2,6.3,26,0.00,,---,0.00,VWS V14.01,2013-03-14 13:20:00,
2013-03-14 09:25:00,27.5,-2.9,30.21,SW,225,3.6,5.4,26,0.00,,---,0.00,VWS V14.01,2013-03-14 13:25:00,
2013-03-14 09:30:00,27.5,-2.9,30.21,NE,45,4.0,4.0,26,0.00,,---,0.00,VWS V14.01,2013-03-14 13:30:00,
2013-03-14 09:35:00,27.3,-3.0,30.21,SW,225,4.9,5.4,26,0.00,,---,0.00,VWS V14.01,2013-03-14 13:35:00,
2013-03-14 09:40:00,27.3,-3.0,30.24,NW,315,0.0,3.1,26,0.00,,---,0.00,VWS V14.01,2013-03-14 13:40:00,
2013-03-14 09:45:00,27.1,-3.2,30.24,North,0,2.7,5.8,26,0.00,,---,0.00,VWS V14.01,2013-03-14 13:45:00,
2013-03-14 09:50:00,27.5,-2.9,30.24,North,0,2.2,2.2,26,0.00,,---,0.00,VWS V14.01,2013-03-14 13:50:00,
2013-03-14 09:55:00,27.9,-1.0,30.24,NNW,338,2.7,3.6,28,0.00,,---,0.00,VWS V14.01,2013-03-14 13:55:00,
2013-03-14 10:00:00,28.0,-0.9,30.24,NNW,338,0.0,0.0,28,0.00,,---,0.00,VWS V14.01,2013-03-14 14:00:00,
2013-03-14 10:05:00,28.2,-0.7,30.24,SW,225,3.6,3.6,28,0.00,,---,0.00,VWS V14.01,2013-03-14 14:05:00,
2013-03-14 10:10:00,28.2,-0.7,30.24,East,90,2.7,4.0,28,0.00,,---,0.00,VWS V14.01,2013-03-14 14:10:00,
2013-03-14 10:15:00,27.9,1.2,30.24,NW,315,3.1,3.1,31,0.00,,---,0.00,VWS V14.01,2013-03-14 14:15:00,
2013-03-14 10:20:00,27.9,-1.0,30.24,NNE,22,4.9,4.9,28,0.00,,---,0.00,VWS V14.01,2013-03-14 14:20:00,
2013-03-14 10:25:00,28.0,1.3,30.24,North,0,3.6,3.6,31,0.00,,---,0.00,VWS V14.01,2013-03-14 14:25:00,
2013-03-14 10:30:00,27.9,-1.0,30.24,NW,315,0.0,2.7,28,0.00,,---,0.00,VWS V14.01,2013-03-14 14:30:00,
2013-03-14 10:35:00,28.4,-0.5,30.24,North,0,5.4,5.4,28,0.00,,---,0.00,VWS V14.01,2013-03-14 14:35:00,
2013-03-14 10:40:00,28.4,-0.5,30.24,SW,225,4.0,4.0,28,0.00,,---,0.00,VWS V14.01,2013-03-14 14:40:00,
2013-03-14 10:45:00,28.6,-0.4,30.24,North,0,2.7,5.4,28,0.00,,---,0.00,VWS V14.01,2013-03-14 14:45:00,
2013-03-14 10:50:00,28.4,-0.5,30.24,North,0,5.4,5.4,28,0.00,,---,0.00,VWS V14.01,2013-03-14 14:50:00,
2013-03-14 10:55:00,28.0,-0.9,30.24,NW,315,7.2,7.2,28,0.00,,---,0.00,VWS V14.01,2013-03-14 14:55:00,
2013-03-14 11:00:00,28.6,-0.4,30.24,South,180,2.7,3.1,28,0.00,,---,0.00,VWS V14.01,2013-03-14 15:00:00,
2013-03-14 11:05:00,28.9,-0.1,30.24,NNE,22,2.7,2.7,28,0.00,,---,0.00,VWS V14.01,2013-03-14 15:05:00,
2013-03-14 11:10:00,28.6,-2.8,30.24,NW,315,4.9,4.9,25,0.00,,---,0.00,VWS V14.01,2013-03-14 15:10:00,
2013-03-14 11:15:00,28.4,-2.1,30.24,NE,45,5.4,5.8,26,0.00,,---,0.00,VWS V14.01,2013-03-14 15:15:00,
2013-03-14 11:20:00,28.4,-2.1,30.24,ESE,112,4.0,7.6,26,0.00,,---,0.00,VWS V14.01,2013-03-14 15:20:00,
2013-03-14 11:25:00,28.8,-0.2,30.21,NW,315,3.6,3.6,28,0.00,,---,0.00,VWS V14.01,2013-03-14 15:25:00,
2013-03-14 11:30:00,29.7,-1.8,30.21,SE,135,4.9,4.9,25,0.00,,---,0.00,VWS V14.01,2013-03-14 15:30:00,
2013-03-14 11:35:00,29.5,-2.0,30.21,SSE,158,3.6,10.1,25,0.00,,---,0.00,VWS V14.01,2013-03-14 15:35:00,
2013-03-14 11:40:00,30.0,-1.5,30.24,NNW,338,4.0,4.0,25,0.00,,---,0.00,VWS V14.01,2013-03-14 15:40:00,
2013-03-14 11:45:00,30.2,-1.4,30.24,WNW,292,2.7,2.7,25,0.00,,---,0.00,VWS V14.01,2013-03-14 15:45:00,
2013-03-14 11:50:00,29.5,-2.0,30.24,NW,315,5.4,5.4,25,0.00,,---,0.00,VWS V14.01,2013-03-14 15:50:00,
2013-03-14 11:55:00,28.9,-2.5,30.24,NW,315,3.6,4.9,25,0.00,,---,0.00,VWS V14.01,2013-03-14 15:55:00,
2013-03-14 12:00:00,28.9,-0.1,30.24,SW,225,3.1,8.1,28,0.00,,---,0.00,VWS V14.01,2013-03-14 16:00:00,
2013-03-14 12:05:00,29.1,0.1,30.24,North,0,3.1,3.6,28,0.00,,---,0.00,VWS V14.01,2013-03-14 16:05:00,
2013-03-14 12:10:00,28.6,-2.8,30.24,SW,225,8.1,8.1,25,0.00,,---,0.00,VWS V14.01,2013-03-14 16:10:00,
2013-03-14 12:15:00,28.8,-0.2,30.24,NNW,338,5.8,5.8,28,0.00,,---,0.00,VWS V14.01,2013-03-14 16:15:00,
2013-03-14 12:20:00,29.7,0.6,30.24,NNW,338,3.1,3.6,28,0.00,,---,0.00,VWS V14.01,2013-03-14 16:20:00,
2013-03-14 12:25:00,29.7,0.6,30.21,North,0,0.0,8.1,28,0.00,,---,0.00,VWS V14.01,2013-03-14 16:25:00,
2013-03-14 12:30:00,29.5,0.4,30.21,South,180,8.7,8.7,28,0.00,,---,0.00,VWS V14.01,2013-03-14 16:30:00,
2013-03-14 12:35:00,29.8,0.7,30.21,NW,315,8.1,8.1,28,0.00,,---,0.00,VWS V14.01,2013-03-14 16:35:00,
2013-03-14 12:40:00,29.8,0.7,30.24,SW,225,4.0,4.0,28,0.00,,---,0.00,VWS V14.01,2013-03-14 16:40:00,
2013-03-14 12:45:00,30.0,-1.5,30.24,North,0,3.1,4.0,25,0.00,,---,0.00,VWS V14.01,2013-03-14 16:45:00,
2013-03-14 12:50:00,32.2,2.8,30.24,NNW,338,6.7,6.7,28,0.00,,---,0.00,VWS V14.01,2013-03-14 16:50:00,
2013-03-14 12:55:00,32.0,0.2,30.24,SSE,158,4.0,5.8,25,0.00,,---,0.00,VWS V14.01,2013-03-14 16:55:00,
2013-03-14 13:00:00,32.5,3.1,30.24,WNW,292,4.0,5.8,28,0.00,,---,0.00,VWS V14.01,2013-03-14 17:00:00,
2013-03-14 13:05:00,32.0,2.6,30.24,East,90,2.7,8.1,28,0.00,,---,0.00,VWS V14.01,2013-03-14 17:05:00,
2013-03-14 13:10:00,31.5,2.1,30.24,SW,225,5.8,8.3,28,0.00,,---,0.00,VWS V14.01,2013-03-14 17:10:00,
2013-03-14 13:15:00,30.9,1.7,30.24,West,270,4.9,4.9,28,0.00,,---,0.00,VWS V14.01,2013-03-14 17:15:00,
2013-03-14 13:23:00,30.6,1.4,30.24,North,0,4.9,4.9,28,0.00,,---,0.00,VWS V14.01,2013-03-14 17:23:00,
2013-03-14 13:28:00,31.1,3.3,30.24,North,0,4.9,5.4,30,0.00,,---,0.00,VWS V14.01,2013-03-14 17:28:00,
2013-03-14 13:33:00,30.2,-1.4,30.24,WNW,292,11.0,11.0,25,0.00,,---,0.00,VWS V14.01,2013-03-14 17:33:00,
2013-03-14 13:38:00,31.1,1.8,30.24,North,0,3.1,6.3,28,0.00,,---,0.00,VWS V14.01,2013-03-14 17:38:00,
2013-03-14 13:43:00,31.8,0.0,30.24,NW,315,5.8,8.1,25,0.00,,---,0.00,VWS V14.01,2013-03-14 17:43:00,
2013-03-14 13:48:00,31.8,0.0,30.24,NW,315,3.6,5.4,25,0.00,,---,0.00,VWS V14.01,2013-03-14 17:48:00,
2013-03-14 13:53:00,32.2,0.3,30.24,North,0,5.8,8.7,25,0.00,,---,0.00,VWS V14.01,2013-03-14 17:53:00,
2013-03-14 13:58:00,31.6,-0.1,30.24,SW,225,4.0,5.8,25,0.00,,---,0.00,VWS V14.01,2013-03-14 17:58:00,
2013-03-14 14:03:00,31.3,-0.4,30.24,NW,315,3.1,7.2,25,0.00,,---,0.00,VWS V14.01,2013-03-14 18:03:00,
2013-03-14 14:08:00,31.8,0.0,30.21,SW,225,5.4,12.3,25,0.00,,---,0.00,VWS V14.01,2013-03-14 18:08:00,
2013-03-14 14:13:00,30.7,-0.9,30.21,NW,315,8.3,8.3,25,0.00,,---,0.00,VWS V14.01,2013-03-14 18:13:00,
2013-03-14 14:18:00,31.8,0.0,30.21,NW,315,2.7,8.1,25,0.00,,---,0.00,VWS V14.01,2013-03-14 18:18:00,
2013-03-14 14:23:00,33.4,1.4,30.21,SW,225,3.1,8.3,25,0.00,,---,0.00,VWS V14.01,2013-03-14 18:23:00,
2013-03-14 14:28:00,34.3,2.2,30.21,West,270,10.1,10.1,25,0.00,,---,0.00,VWS V14.01,2013-03-14 18:28:00,
2013-03-14 14:33:00,32.2,0.3,30.21,South,180,8.7,9.2,25,0.00,,---,0.00,VWS V14.01,2013-03-14 18:33:00,
2013-03-14 14:38:00,31.8,2.4,30.21,North,0,5.8,5.8,28,0.00,,---,0.00,VWS V14.01,2013-03-14 18:38:00,
2013-03-14 14:43:00,31.6,-0.1,30.21,SW,225,3.6,5.4,25,0.00,,---,0.00,VWS V14.01,2013-03-14 18:43:00,
2013-03-14 14:48:00,32.5,3.1,30.21,North,0,5.4,5.4,28,0.00,,---,0.00,VWS V14.01,2013-03-14 18:48:00,
2013-03-14 14:53:00,31.5,2.1,30.21,NW,315,4.9,6.3,28,0.00,,---,0.00,VWS V14.01,2013-03-14 18:53:00,
2013-03-14 14:58:00,30.9,1.7,30.21,SW,225,6.7,7.6,28,0.00,,---,0.00,VWS V14.01,2013-03-14 18:58:00,
2013-03-14 15:03:00,32.2,2.8,30.21,ESE,112,0.0,6.3,28,0.00,,---,0.00,VWS V14.01,2013-03-14 19:03:00,
2013-03-14 15:08:00,31.6,-0.1,30.21,NW,315,7.2,7.2,25,0.00,,---,0.00,VWS V14.01,2013-03-14 19:08:00,
2013-03-14 15:14:00,30.9,-0.8,30.21,ESE,112,4.0,6.3,25,0.00,,---,0.00,VWS V14.01,2013-03-14 19:14:00,
2013-03-14 15:19:00,30.6,-1.1,30.21,East,90,4.9,5.4,25,0.00,,---,0.00,VWS V14.01,2013-03-14 19:19:00,
2013-03-14 15:24:00,30.2,-1.4,30.21,NNW,338,6.3,6.3,25,0.00,,---,0.00,VWS V14.01,2013-03-14 19:24:00,
2013-03-14 15:29:00,30.4,-1.2,30.21,NW,315,3.6,7.6,25,0.00,,---,0.00,VWS V14.01,2013-03-14 19:29:00,
2013-03-14 15:34:00,30.6,-1.1,30.21,North,0,5.4,7.6,25,0.00,,---,0.00,VWS V14.01,2013-03-14 19:34:00,
2013-03-14 15:39:00,30.4,-1.2,30.21,NNW,338,5.4,8.1,25,0.00,,---,0.00,VWS V14.01,2013-03-14 19:39:00,
2013-03-14 15:44:00,30.2,-1.4,30.21,SW,225,5.4,8.1,25,0.00,,---,0.00,VWS V14.01,2013-03-14 19:44:00,
2013-03-14 15:49:00,30.7,-0.9,30.21,WNW,292,4.5,6.3,25,0.00,,---,0.00,VWS V14.01,2013-03-14 19:49:00,
2013-03-14 15:54:00,31.3,-0.4,30.18,NW,315,3.6,4.0,25,0.00,,---,0.00,VWS V14.01,2013-03-14 19:54:00,
2013-03-14 15:59:00,31.3,-2.2,30.18,NE,45,2.7,8.1,23,0.00,,---,0.00,VWS V14.01,2013-03-14 19:59:00,
2013-03-14 16:04:00,31.1,-2.4,30.18,West,270,2.7,9.2,23,0.00,,---,0.00,VWS V14.01,2013-03-14 20:04:00,
2013-03-14 16:09:00,31.1,-2.4,30.21,East,90,2.7,6.3,23,0.00,,---,0.00,VWS V14.01,2013-03-14 20:09:00,
2013-03-14 16:14:00,31.3,-2.2,30.21,SW,225,2.7,3.1,23,0.00,,---,0.00,VWS V14.01,2013-03-14 20:14:00,
2013-03-14 16:19:00,30.2,-3.1,30.21,NW,315,3.6,7.2,23,0.00,,---,0.00,VWS V14.01,2013-03-14 20:19:00,
2013-03-14 16:24:00,30.7,-2.7,30.18,NW,315,5.8,7.2,23,0.00,,---,0.00,VWS V14.01,2013-03-14 20:24:00,
2013-03-14 16:29:00,30.2,-3.1,30.18,NW,315,7.6,7.6,23,0.00,,---,0.00,VWS V14.01,2013-03-14 20:29:00,
2013-03-14 16:34:00,30.2,-3.1,30.18,North,0,2.7,7.6,23,0.00,,---,0.00,VWS V14.01,2013-03-14 20:34:00,
2013-03-14 16:39:00,31.8,-1.8,30.21,North,0,2.7,8.1,23,0.00,,---,0.00,VWS V14.01,2013-03-14 20:39:00,
2013-03-14 16:44:00,32.9,-0.8,30.21,NNE,22,4.0,7.2,23,0.00,,---,0.00,VWS V14.01,2013-03-14 20:44:00,
2013-03-14 16:49:00,32.5,-1.1,30.21,WSW,248,5.4,8.3,23,0.00,,---,0.00,VWS V14.01,2013-03-14 20:49:00,
2013-03-14 16:54:00,32.0,-1.6,30.21,North,0,4.9,7.6,23,0.00,,---,0.00,VWS V14.01,2013-03-14 20:54:00,
2013-03-14 16:59:00,32.4,-1.3,30.21,NNW,338,3.6,8.3,23,0.00,,---,0.00,VWS V14.01,2013-03-14 20:59:00,
2013-03-14 17:04:00,31.8,-1.8,30.21,NNW,338,6.7,6.7,23,0.00,,---,0.00,VWS V14.01,2013-03-14 21:04:00,
2013-03-14 17:09:00,31.1,-2.4,30.21,NW,315,2.7,4.9,23,0.00,,---,0.00,VWS V14.01,2013-03-14 21:09:00,
2013-03-14 17:14:00,30.7,-0.9,30.21,NW,315,0.0,3.6,25,0.00,,---,0.00,VWS V14.01,2013-03-14 21:14:00,
2013-03-14 17:19:00,30.9,-0.8,30.21,SW,225,0.0,4.0,25,0.00,,---,0.00,VWS V14.01,2013-03-14 21:19:00,
2013-03-14 17:24:00,30.7,-0.9,30.18,NW,315,3.6,3.6,25,0.00,,---,0.00,VWS V14.01,2013-03-14 21:24:00,
2013-03-14 17:29:00,31.1,-0.6,30.18,NNW,338,0.0,4.9,25,0.00,,---,0.00,VWS V14.01,2013-03-14 21:29:00,
2013-03-14 17:34:00,30.9,-2.5,30.18,NW,315,4.9,7.6,23,0.00,,---,0.00,VWS V14.01,2013-03-14 21:34:00,
2013-03-14 17:39:00,30.6,-2.8,30.18,SW,225,4.9,5.8,23,0.00,,---,0.00,VWS V14.01,2013-03-14 21:39:00,
2013-03-14 17:44:00,30.4,-1.2,30.18,NW,315,2.2,6.3,25,0.00,,---,0.00,VWS V14.01,2013-03-14 21:44:00,
2013-03-14 17:49:00,30.4,-1.2,30.18,NW,315,2.7,6.7,25,0.00,,---,0.00,VWS V14.01,2013-03-14 21:49:00,
2013-03-14 17:54:00,30.6,-1.1,30.18,NW,315,2.2,3.1,25,0.00,,---,0.00,VWS V14.01,2013-03-14 21:54:00,
2013-03-14 17:59:00,30.7,-0.9,30.18,NE,45,2.7,4.9,25,0.00,,---,0.00,VWS V14.01,2013-03-14 21:59:00,
2013-03-14 18:04:00,30.4,-1.2,30.18,NNW,338,0.0,4.9,25,0.00,,---,0.00,VWS V14.01,2013-03-14 22:04:00,
2013-03-14 18:09:00,30.2,-1.4,30.18,NW,315,0.0,5.4,25,0.00,,---,0.00,VWS V14.01,2013-03-14 22:09:00,
2013-03-14 18:14:00,29.8,-1.7,30.18,NNE,22,2.7,6.3,25,0.00,,---,0.00,VWS V14.01,2013-03-14 22:14:00,
2013-03-14 18:19:00,30.2,-1.4,30.18,NNE,22,3.1,5.4,25,0.00,,---,0.00,VWS V14.01,2013-03-14 22:19:00,
2013-03-14 18:24:00,29.8,0.7,30.18,NW,315,2.2,4.0,28,0.00,,---,0.00,VWS V14.01,2013-03-14 22:24:00,
2013-03-14 18:29:00,29.7,0.6,30.18,NW,315,5.4,5.4,28,0.00,,---,0.00,VWS V14.01,2013-03-14 22:29:00,
2013-03-14 18:34:00,29.1,0.1,30.18,East,90,2.7,5.8,28,0.00,,---,0.00,VWS V14.01,2013-03-14 22:34:00,
2013-03-14 18:39:00,29.1,1.6,30.18,NW,315,4.0,4.0,30,0.00,,---,0.00,VWS V14.01,2013-03-14 22:39:00,
2013-03-14 18:44:00,28.8,2.0,30.18,South,180,2.7,4.9,31,0.00,,---,0.00,VWS V14.01,2013-03-14 22:44:00,
2013-03-14 18:49:00,28.4,2.3,30.18,NE,45,3.6,4.9,32,0.00,,---,0.00,VWS V14.01,2013-03-14 22:49:00,
2013-03-14 18:54:00,28.2,2.2,30.18,NNW,338,3.6,4.0,32,0.00,,---,0.00,VWS V14.01,2013-03-14 22:54:00,
2013-03-14 18:59:00,28.4,3.0,30.18,NW,315,5.4,7.2,33,0.00,,---,0.00,VWS V14.01,2013-03-14 22:59:00,
2013-03-14 19:04:00,28.4,3.6,30.18,SW,225,3.1,6.7,34,0.00,,---,0.00,VWS V14.01,2013-03-14 23:04:00,
2013-03-14 19:09:00,28.6,3.1,30.18,NW,315,3.1,4.5,33,0.00,,---,0.00,VWS V14.01,2013-03-14 23:09:00,
2013-03-14 19:14:00,28.4,3.0,30.18,West,270,3.6,4.0,33,0.00,,---,0.00,VWS V14.01,2013-03-14 23:14:00,
2013-03-14 19:19:00,28.0,3.3,30.18,WSW,248,5.8,5.8,34,0.00,,---,0.00,VWS V14.01,2013-03-14 23:19:00,
2013-03-14 19:24:00,27.9,3.2,30.15,SW,225,3.1,3.1,34,0.00,,---,0.00,VWS V14.01,2013-03-14 23:24:00,
2013-03-14 19:29:00,27.5,3.5,30.15,WSW,248,2.7,4.0,35,0.00,,---,0.00,VWS V14.01,2013-03-14 23:29:00,
2013-03-14 19:34:00,27.3,3.3,30.15,SE,135,0.0,2.2,35,0.00,,---,0.00,VWS V14.01,2013-03-14 23:34:00,
2013-03-14 19:39:00,27.1,3.7,30.15,SW,225,0.0,5.4,36,0.00,,---,0.00,VWS V14.01,2013-03-14 23:39:00,
2013-03-14 19:44:00,27.0,3.6,30.15,West,270,2.7,2.7,36,0.00,,---,0.00,VWS V14.01,2013-03-14 23:44:00,
2013-03-14 19:49:00,27.0,4.2,30.15,West,270,0.0,3.6,37,0.00,,---,0.00,VWS V14.01,2013-03-14 23:49:00,
2013-03-14 19:54:00,26.8,4.6,30.15,West,270,0.0,4.0,38,0.00,,---,0.00,VWS V14.01,2013-03-14 23:54:00,
2013-03-14 19:59:00,26.6,5.0,30.15,SE,135,3.1,3.6,39,0.00,,---,0.00,VWS V14.01,2013-03-14 23:59:00,
2013-03-14 20:04:00,26.6,5.6,30.15,WSW,248,0.0,0.0,40,0.00,,---,0.00,VWS V14.01,2013-03-15 00:04:00,
2013-03-14 20:09:00,26.4,5.4,30.15,West,270,0.0,0.0,40,0.00,,---,0.00,VWS V14.01,2013-03-15 00:09:00,
2013-03-14 20:14:00,26.4,5.9,30.15,WSW,248,3.1,3.1,41,0.00,,---,0.00,VWS V14.01,2013-03-15 00:14:00,
2013-03-14 20:19:00,26.1,5.6,30.15,SW,225,0.0,0.0,41,0.00,,---,0.00,VWS V14.01,2013-03-15 00:19:00,
2013-03-14 20:24:00,26.2,5.8,30.15,West,270,0.0,0.0,41,0.00,,---,0.00,VWS V14.01,2013-03-15 00:24:00,
2013-03-14 20:29:00,26.1,5.6,30.15,West,270,2.7,2.7,41,0.00,,---,0.00,VWS V14.01,2013-03-15 00:29:00,
2013-03-14 20:34:00,26.1,5.6,30.15,SW,225,0.0,0.0,41,0.00,,---,0.00,VWS V14.01,2013-03-15 00:34:00,
2013-03-14 20:39:00,25.9,5.4,30.15,NW,315,0.0,0.0,41,0.00,,---,0.00,VWS V14.01,2013-03-15 00:39:00,
2013-03-14 20:44:00,25.5,5.6,30.15,West,270,0.0,0.0,42,0.00,,---,0.00,VWS V14.01,2013-03-15 00:44:00,
2013-03-14 20:49:00,25.5,5.6,30.15,SW,225,0.0,0.0,42,0.00,,---,0.00,VWS V14.01,2013-03-15 00:49:00,
2013-03-14 20:54:00,25.3,5.5,30.15,SW,225,0.0,0.0,42,0.00,,---,0.00,VWS V14.01,2013-03-15 00:54:00,
2013-03-14 20:59:00,25.2,5.3,30.15,SW,225,0.0,0.0,42,0.00,,---,0.00,VWS V14.01,2013-03-15 00:59:00,
2013-03-14 21:04:00,24.8,5.5,30.15,SW,225,0.0,0.0,43,0.00,,---,0.00,VWS V14.01,2013-03-15 01:04:00,
2013-03-14 21:09:00,24.4,5.2,30.15,SW,225,0.0,0.0,43,0.00,,---,0.00,VWS V14.01,2013-03-15 01:09:00,
2013-03-14 21:14:00,24.4,5.2,30.15,West,270,0.0,0.0,43,0.00,,---,0.00,VWS V14.01,2013-03-15 01:14:00,
2013-03-14 21:19:00,24.4,5.2,30.15,West,270,0.0,0.0,43,0.00,,---,0.00,VWS V14.01,2013-03-15 01:19:00,
2013-03-14 21:24:00,24.3,5.0,30.15,West,270,0.0,0.0,43,0.00,,---,0.00,VWS V14.01,2013-03-15 01:24:00,
2013-03-14 21:29:00,24.1,4.8,30.15,West,270,0.0,0.0,43,0.00,,---,0.00,VWS V14.01,2013-03-15 01:29:00,
2013-03-14 21:34:00,24.1,4.8,30.15,West,270,0.0,0.0,43,0.00,,---,0.00,VWS V14.01,2013-03-15 01:34:00,
2013-03-14 21:39:00,24.1,4.8,30.15,West,270,0.0,0.0,43,0.00,,---,0.00,VWS V14.01,2013-03-15 01:39:00,
2013-03-14 21:44:00,24.3,5.0,30.15,West,270,0.0,0.0,43,0.00,,---,0.00,VWS V14.01,2013-03-15 01:44:00,
2013-03-14 21:49:00,24.3,5.0,30.15,WSW,248,0.0,0.0,43,0.00,,---,0.00,VWS V14.01,2013-03-15 01:49:00,
2013-03-14 21:54:00,24.3,5.0,30.12,WSW,248,0.0,0.0,43,0.00,,---,0.00,VWS V14.01,2013-03-15 01:54:00,
2013-03-14 21:59:00,24.3,5.0,30.12,WSW,248,0.0,0.0,43,0.00,,---,0.00,VWS V14.01,2013-03-15 01:59:00,
2013-03-14 22:04:00,24.1,4.8,30.12,WSW,248,0.0,0.0,43,0.00,,---,0.00,VWS V14.01,2013-03-15 02:04:00,
2013-03-14 22:09:00,23.9,4.7,30.15,WSW,248,0.0,0.0,43,0.00,,---,0.00,VWS V14.01,2013-03-15 02:09:00,
2013-03-14 22:14:00,23.7,4.5,30.15,WSW,248,0.0,0.0,43,0.00,,---,0.00,VWS V14.01,2013-03-15 02:14:00,
2013-03-14 22:19:00,23.5,4.3,30.15,WSW,248,0.0,0.0,43,0.00,,---,0.00,VWS V14.01,2013-03-15 02:19:00,
2013-03-14 22:24:00,23.9,4.7,30.12,West,270,0.0,0.0,43,0.00,,---,0.00,VWS V14.01,2013-03-15 02:24:00,
2013-03-14 22:29:00,23.7,4.5,30.12,West,270,0.0,0.0,43,0.00,,---,0.00,VWS V14.01,2013-03-15 02:29:00,
2013-03-14 22:34:00,23.5,4.3,30.12,West,270,0.0,0.0,43,0.00,,---,0.00,VWS V14.01,2013-03-15 02:34:00,
2013-03-14 22:39:00,23.5,4.3,30.12,West,270,0.0,0.0,43,0.00,,---,0.00,VWS V14.01,2013-03-15 02:39:00,
2013-03-14 22:44:00,23.7,4.5,30.12,West,270,0.0,0.0,43,0.00,,---,0.00,VWS V14.01,2013-03-15 02:44:00,
2013-03-14 22:49:00,23.5,4.3,30.12,West,270,0.0,0.0,43,0.00,,---,0.00,VWS V14.01,2013-03-15 02:49:00,
2013-03-14 22:54:00,23.7,4.5,30.12,West,270,0.0,0.0,43,0.00,,---,0.00,VWS V14.01,2013-03-15 02:54:00,
2013-03-14 22:59:00,23.5,4.3,30.12,West,270,0.0,0.0,43,0.00,,---,0.00,VWS V14.01,2013-03-15 02:59:00,
2013-03-14 23:04:00,23.9,4.7,30.12,SSW,202,0.0,0.0,43,0.00,,---,0.00,VWS V14.01,2013-03-15 03:04:00,
2013-03-14 23:09:00,24.1,4.8,30.12,SW,225,0.0,0.0,43,0.00,,---,0.00,VWS V14.01,2013-03-15 03:09:00,
2013-03-14 23:14:00,24.4,5.2,30.12,SW,225,0.0,0.0,43,0.00,,---,0.00,VWS V14.01,2013-03-15 03:14:00,
2013-03-14 23:19:00,24.6,4.8,30.12,West,270,0.0,0.0,42,0.00,,---,0.00,VWS V14.01,2013-03-15 03:19:00,
2013-03-14 23:24:00,24.8,5.0,30.12,SW,225,0.0,0.0,42,0.00,,---,0.00,VWS V14.01,2013-03-15 03:24:00,
2013-03-14 23:29:00,24.6,4.8,30.12,SW,225,0.0,0.0,42,0.00,,---,0.00,VWS V14.01,2013-03-15 03:29:00,
2013-03-14 23:34:00,24.6,4.8,30.12,SW,225,0.0,0.0,42,0.00,,---,0.00,VWS V14.01,2013-03-15 03:34:00,
2013-03-14 23:39:00,24.6,4.8,30.12,South,180,0.0,0.0,42,0.00,,---,0.00,VWS V14.01,2013-03-15 03:39:00,
2013-03-14 23:44:00,24.8,5.0,30.12,SW,225,0.0,2.2,42,0.00,,---,0.00,VWS V14.01,2013-03-15 03:44:00,
2013-03-14 23:49:00,25.0,4.6,30.12,SW,225,2.2,2.2,41,0.00,,---,0.00,VWS V14.01,2013-03-15 03:49:00,
2013-03-14 23:54:00,25.0,4.6,30.09,South,180,0.0,0.0,41,0.00,,---,0.00,VWS V14.01,2013-03-15 03:54:00,
2013-03-14 23:59:00,25.0,4.6,30.09,SW,225,0.0,2.2,41,0.00,,---,0.00,VWS V14.01,2013-03-15 03:59:00,